Regional Weather Roundup
Issued by NWS Glasgow, MT

Home | Current Version | Previous Version | Text Only | Print | Product List | Glossary On
Versions: 1 2 3 4 5 6 7 8 9 10 11 12 13 14 15 16 17 18 19 20 21 22 23 24 25 26 27
000
ASUS45 KGGW 240515
RWRGGW
HOURLY REGIONAL WEATHER ROUNDUP FOR NORTHEAST MONTANA
NATIONAL WEATHER SERVICE GLASGOW MONTANA
1100 PM MDT SAT SEP 23 2017

NOTE: "FAIR" INDICATES FEW OR NO CLOUDS BELOW 12,000 FEET WITH NO
SIGNIFICANT WEATHER AND/OR OBSTRUCTIONS TO VISISBILITY.

NORTHEAST MONTANA


CITY           SKY/WX    TMP DP  RH WIND       PRES   REMARKS
GLASGOW        CLOUDY    47  38  71 E3        30.12F
WOLF POINT     CLOUDY    47  43  86 CALM      30.14F
JORDAN           N/A     46  40  79 CALM      30.12S
WINNETT          N/A     35  34  96 SW1         N/A
SIDNEY         LGT RAIN  45  43  93 CALM      30.15R
GLENDIVE       LGT RAIN  44  42  93 N6        30.14R

FORT PECK REPORTS


CITY           SKY/WX    TMP DP  RH WIND       PRES   REMARKS
FORT PECK        N/A     48  39  71 NE3         N/A
THE PINES        N/A     47  35  63 E3          N/A

SOUTHEAST MONTANA


CITY           SKY/WX    TMP DP  RH WIND       PRES   REMARKS
BILLINGS       CLOUDY    42  39  89 N6        30.11S
MILES CITY     CLOUDY    43  41  93 N6        30.13R
BAKER          LGT RAIN  43  41  93 N6        30.10S
LIVINGSTON     CLOUDY    42  36  79 CALM      30.09S

CENTRAL MONTANA


CITY           SKY/WX    TMP DP  RH WIND       PRES   REMARKS
HAVRE          PTCLDY    38  36  92 SW6       30.10S
LEWISTOWN      CLOUDY    41  39  93 E7        30.10F
GREAT FALLS    PTCLDY    37  30  75 S8        30.08F
CUT BANK       CLEAR     35  32  88 NW7       30.07S
HELENA         CLOUDY    43  33  68 W6        30.09F
BUTTE          CLOUDY    32  30  92 CALM      30.12S
BOZEMAN        CLOUDY    43  36  76 S6        30.10S

WESTERN MONTANA


CITY           SKY/WX    TMP DP  RH WIND       PRES   REMARKS
MISSOULA       CLEAR     41  36  82 N7        30.12S
KALISPELL      NOT AVBL

NORTH DAKOTA


CITY           SKY/WX    TMP DP  RH WIND       PRES   REMARKS
WILLISTON      LGT RAIN  46  43  89 N3        30.13R
DICKINSON      LGT RAIN  45  44  97 NE8       30.08S
MINOT          LGT RAIN  48  46  93 NW8       30.09R
BISMARCK       LGT RAIN  49  48  97 N10       30.05F FOG

SOUTHERN SASKATCHEWAN


CITY           SKY/WX    TMP DP  RH WIND       PRES   REMARKS
REGINA         MOCLDY    43  37  81 SE3       30.16S
ESTEVAN        LGT RAIN  45  43  93 N6        30.10F
SWIFT CURRENT    N/A     41  37  87 S9        30.12R





USA.gov is the U.S. government's official web portal to all federal, state and local government web resources and services.